FW3192 Weather Reports


Display with metric or nautical units.
time (UTC)temp
F
wind
direction
speed
MPH
gust
MPH
rain 1hr
in
rain 24hr
in
rain mn
in
humidity
%
barometer
mb
20260505013031 62 254 4.0 9.0 0.00 0.00 0.00 67 1023.1
20260505011546 61 251 4.0 7.0 0.00 0.00 0.00 70 1022.9
20260505010026 61 257 3.0 8.0 0.00 0.00 0.00 69 1022.9
20260505004522 60 260 4.0 9.0 0.00 0.00 0.00 71 1022.7
20260505003019 59 233 5.0 9.0 0.00 0.00 0.00 74 1022.6
20260505001515 59 236 1.0 4.0 0.00 0.00 0.00 81 1022.5
20260505000014 58 213 3.0 7.0 0.00 0.00 0.00 87 1022.5
20260504234556 58 78 0.0 1.0 0.00 0.00 0.00 92 1022.4
20260504233102 56 77 0.0 1.0 0.00 0.00 0.00 92 1022.4
20260504231534 56 43 0.0 2.0 0.00 0.00 0.00 93 1022.4
20260504230030 56 42 0.0 1.0 0.00 0.00 0.00 93 1022.2
20260504224533 55 42 0.0 1.0 0.00 0.00 0.00 93 1022.0
20260504223026 55 50 0.0 3.0 0.00 0.00 0.00 93 1021.9
20260504221522 54 84 0.0 2.0 0.00 0.00 0.00 93 1021.8
20260504220020 54 41 0.0 2.0 0.00 0.00 0.00 93 1021.6
20260504214519 54 69 0.0 0.0 0.00 0.00 0.00 92 1021.4
20260504213016 54 87 0.0 0.0 0.00 0.00 0.00 92 1021.3
20260504211552 54 43 0.0 0.0 0.00 0.00 0.00 92 1021.2
20260504210050 54 20 0.0 3.0 0.00 0.00 0.00 92 1021.0
20260504204551 54 45 0.0 3.0 0.00 0.00 0.00 91 1020.7
20260504203050 54 64 2.0 4.0 0.00 0.00 0.00 91 1020.6
20260504201546 55 93 0.0 2.0 0.00 0.00 0.00 91 1020.5
20260504200044 55 50 2.0 4.0 0.00 0.00 0.00 90 1020.4
20260504194545 55 88 0.0 3.0 0.00 0.00 0.00 89 1020.3
20260504193039 55 89 1.0 3.0 0.00 0.00 0.00 88 1020.1
20260504191524 56 115 0.0 1.0 0.00 0.00 0.00 88 1020.1
20260504190024 57 122 3.0 5.0 0.00 0.00 0.00 86 1019.9
20260504184523 58 153 6.0 9.0 0.00 0.00 0.00 84 1019.9
20260504183018 59 206 9.0 12.0 0.00 0.00 0.00 82 1019.7
20260504181517 58 213 7.0 12.0 0.00 0.00 0.00 83 1019.6
20260504180017 58 216 7.0 14.0 0.00 0.00 0.00 84 1019.6
20260504174516 58 242 8.0 13.0 0.00 0.00 0.00 84 1019.5
20260504173018 58 225 7.0 12.0 0.00 0.00 0.00 84 1019.5
20260504171557 58 209 8.0 12.0 0.00 0.00 0.00 86 1019.7
20260504090124 61 192 12.0 17.0 0.00 0.00 0.00 73 1016.4
20260504081541 62 232 12.0 17.0 0.00 0.00 0.00 73 1015.8
20260504050008 65 233 12.0 17.0 0.00 0.00 0.00 70 1014.1
20260504044515 65 237 11.0 18.0 0.00 0.00 0.00 72 1013.8
20260504043007 65 256 11.0 18.0 0.00 0.00 0.00 72 1013.8
20260504041511 65 257 13.0 16.0 0.00 0.00 0.00 72 1013.7
20260504040106 65 229 11.0 18.0 0.00 0.00 0.00 74 1013.9
20260504034553 65 244 12.0 19.0 0.00 0.00 0.00 73 1013.8
20260504033053 64 232 11.0 18.0 0.00 0.00 0.00 74 1013.8
20260504031550 64 237 12.0 18.0 0.00 0.00 0.00 74 1013.8
20260504030048 64 240 13.0 18.0 0.00 0.00 0.00 74 1014.0
20260504024548 64 228 9.0 14.0 0.00 0.00 0.00 79 1014.1
20260504023047 63 237 10.0 17.0 0.00 0.00 0.00 74 1014.2
20260504021548 64 223 10.0 16.0 0.00 0.00 0.00 77 1014.2
20260504020031 63 230 9.0 21.0 0.00 0.00 0.00 72 1014.2
20260504014537 64 247 12.0 16.0 0.00 0.00 0.00 77 1014.2